| time (UTC) | temp F | wind direction | speed MPH | gust MPH | rain 1hr in | rain 24hr in | rain mn in | humidity % | barometer mb |
| 20260902145713 | 82 | 228 | 3.0 | 3.0 | 0.00 | 0.00 | 0.00 | 72 | 1026.1 |
| 20260902145212 | 82 | 228 | 3.0 | 3.0 | 0.00 | 0.00 | 0.00 | 72 | 1026.1 |
| 20260902144709 | 81 | 234 | 4.0 | 6.0 | 0.00 | 0.00 | 0.00 | 70 | 1026.0 |
| 20260902144204 | 81 | 220 | 3.0 | 4.0 | 0.00 | 0.00 | 0.00 | 71 | 1025.9 |
| 20260902143659 | 81 | 230 | 4.0 | 6.0 | 0.00 | 0.00 | 0.00 | 71 | 1026.0 |
| 20260902143154 | 80 | 226 | 3.0 | 7.0 | 0.00 | 0.00 | 0.00 | 71 | 1026.0 |
| 20260902142650 | 81 | 224 | 3.0 | 7.0 | 0.00 | 0.00 | 0.00 | 71 | 1026.1 |
| 20260902142146 | 81 | 239 | 3.0 | 4.0 | 0.00 | 0.00 | 0.00 | 72 | 1026.0 |
| 20260902141645 | 81 | 249 | 3.0 | 6.0 | 0.00 | 0.00 | 0.00 | 74 | 1026.0 |
| 20260902141141 | 80 | 222 | 2.0 | 4.0 | 0.00 | 0.00 | 0.00 | 73 | 1026.0 |
| 20260902140636 | 80 | 239 | 4.0 | 6.0 | 0.00 | 0.00 | 0.00 | 74 | 1026.0 |
| 20260902140131 | 80 | 238 | 2.0 | 2.0 | 0.00 | 0.00 | 0.00 | 73 | 1025.9 |
| 20260902135630 | 80 | 230 | 3.0 | 4.0 | 0.00 | 0.00 | 0.00 | 74 | 1026.1 |
| 20260902135126 | 80 | 238 | 3.0 | 3.0 | 0.00 | 0.00 | 0.00 | 74 | 1026.3 |
| 20260902134621 | 80 | 228 | 2.0 | 3.0 | 0.00 | 0.00 | 0.00 | 75 | 1026.3 |
| 20260902134121 | 80 | 232 | 2.0 | 3.0 | 0.00 | 0.00 | 0.00 | 75 | 1026.0 |
| 20260902133622 | 79 | 232 | 0.0 | 3.0 | 0.00 | 0.00 | 0.00 | 75 | 1025.9 |
| 20260902133122 | 79 | 234 | 2.0 | 3.0 | 0.00 | 0.00 | 0.00 | 78 | 1026.1 |
| 20260902132617 | 79 | 232 | 1.0 | 2.0 | 0.00 | 0.00 | 0.00 | 77 | 1026.1 |
| 20260902132112 | 78 | 233 | 1.0 | 2.0 | 0.00 | 0.00 | 0.00 | 80 | 1026.1 |
| 20260902131608 | 77 | 224 | 3.0 | 3.0 | 0.00 | 0.00 | 0.00 | 77 | 1026.1 |
| 20260902131103 | 77 | 238 | 2.0 | 3.0 | 0.00 | 0.00 | 0.00 | 79 | 1025.9 |
| 20260902130554 | 77 | 224 | 3.0 | 4.0 | 0.00 | 0.00 | 0.00 | 80 | 1026.0 |
| 20260902130049 | 76 | 230 | 2.0 | 3.0 | 0.00 | 0.00 | 0.00 | 82 | 1026.0 |
| 20260902125544 | 0 | 217 | 1.0 | 3.0 | 0.00 | 0.00 | 0.00 | 1025.9 | |
| 20260902125039 | 0 | 224 | 2.0 | 3.0 | 0.00 | 0.00 | 0.00 | 1025.8 | |
| 20260902124536 | 0 | 211 | 2.0 | 2.0 | 0.00 | 0.00 | 0.00 | 1025.9 | |
| 20260902124031 | 0 | 202 | 3.0 | 4.0 | 0.00 | 0.00 | 0.00 | 1025.6 | |
| 20260902123526 | 0 | 181 | 0.0 | 0.0 | 0.00 | 0.00 | 0.00 | 1025.8 | |
| 20260902123020 | 0 | 178 | 0.0 | 0.0 | 0.00 | 0.00 | 0.00 | 1025.6 | |
| 20260902122515 | 0 | 178 | 0.0 | 0.0 | 0.00 | 0.00 | 0.00 | 1025.7 | |
| 20260902122010 | 0 | 179 | 0.0 | 0.0 | 0.00 | 0.00 | 0.00 | 1025.9 | |
| 20260902121505 | 0 | 180 | 0.0 | 0.0 | 0.00 | 0.00 | 0.00 | 1025.7 | |
| 20260902121000 | 0 | 179 | 0.0 | 2.0 | 0.00 | 0.00 | 0.00 | 1025.7 | |
| 20260902120456 | 0 | 178 | 2.0 | 3.0 | 0.00 | 0.00 | 0.00 | 1025.5 | |
| 20260902115956 | 0 | 178 | 2.0 | 2.0 | 0.00 | 0.00 | 0.00 | 1025.7 | |
| 20260902115452 | 0 | 177 | 2.0 | 3.0 | 0.00 | 0.00 | 0.00 | 1025.5 | |
| 20260902114949 | 0 | 174 | 2.0 | 3.0 | 0.00 | 0.00 | 0.00 | 1025.5 | |
| 20260902114444 | 0 | 174 | 2.0 | 3.0 | 0.00 | 0.00 | 0.00 | 1025.6 | |
| 20260902113939 | 0 | 173 | 2.0 | 3.0 | 0.00 | 0.00 | 0.00 | 1025.5 | |
| 20260902113435 | 0 | 170 | 3.0 | 3.0 | 0.00 | 0.00 | 0.00 | 1025.6 | |
| 20260902112934 | 0 | 168 | 3.0 | 4.0 | 0.00 | 0.00 | 0.00 | 1025.5 | |
| 20260902112430 | 0 | 166 | 3.0 | 3.0 | 0.00 | 0.00 | 0.00 | 1025.3 | |
| 20260902111926 | 0 | 166 | 3.0 | 3.0 | 0.00 | 0.00 | 0.00 | 1025.4 | |
| 20260902111422 | 0 | 141 | 2.0 | 4.0 | 0.00 | 0.00 | 0.00 | 1025.1 | |
| 20260902110918 | 0 | 160 | 2.0 | 3.0 | 0.00 | 0.00 | 0.00 | 1025.3 | |
| 20260902110414 | 0 | 157 | 2.0 | 4.0 | 0.00 | 0.00 | 0.00 | 1025.1 | |
| 20260902105913 | 0 | 157 | 2.0 | 4.0 | 0.00 | 0.00 | 0.00 | 1025.0 | |
| 20260902105408 | 0 | 155 | 3.0 | 4.0 | 0.00 | 0.00 | 0.00 | 1025.1 | |
| 20260902104903 | 0 | 153 | 2.0 | 3.0 | 0.00 | 0.00 | 0.00 | 1025.4 | |
| 20260902104359 | 0 | 153 | 1.0 | 2.0 | 0.00 | 0.00 | 0.00 | 1025.3 | |
| 20260902103859 | 0 | 153 | 2.0 | 3.0 | 0.00 | 0.00 | 0.00 | 1025.4 | |
| 20260902103354 | 0 | 154 | 0.0 | 0.0 | 0.00 | 0.00 | 0.00 | 1025.4 | |
| 20260902102849 | 0 | 153 | 0.0 | 0.0 | 0.00 | 0.00 | 0.00 | 1025.5 | |
| 20260902102348 | 0 | 154 | 0.0 | 0.0 | 0.00 | 0.00 | 0.00 | 1025.5 | |
| 20260902101843 | 0 | 155 | 0.0 | 0.0 | 0.00 | 0.00 | 0.00 | 1025.4 | |
| 20260902101336 | 0 | 157 | 0.0 | 0.0 | 0.00 | 0.00 | 0.00 | 1025.5 | |
| 20260902100830 | 0 | 157 | 0.0 | 0.0 | 0.00 | 0.00 | 0.00 | 1025.5 | |
| 20260902100330 | 0 | 157 | 0.0 | 0.0 | 0.00 | 0.00 | 0.00 | 1025.5 | |
| 20260902095825 | 0 | 159 | 0.0 | 0.0 | 0.00 | 0.00 | 0.00 | 1025.6 | |
| 20260902095319 | 0 | 160 | 0.0 | 0.0 | 0.00 | 0.00 | 0.00 | 1025.5 | |
| 20260902094814 | 0 | 161 | 0.0 | 0.0 | 0.00 | 0.00 | 0.00 | 1025.7 | |
| 20260902094311 | 0 | 162 | 0.0 | 0.0 | 0.00 | 0.00 | 0.00 | 1025.8 | |
| 20260902093810 | 0 | 163 | 0.0 | 2.0 | 0.00 | 0.00 | 0.00 | 1025.5 | |
| 20260902093305 | 0 | 166 | 0.0 | 2.0 | 0.00 | 0.00 | 0.00 | 1025.4 | |
| 20260902092804 | 0 | 169 | 2.0 | 3.0 | 0.00 | 0.00 | 0.00 | 1025.4 | |
| 20260902092259 | 0 | 167 | 2.0 | 2.0 | 0.00 | 0.00 | 0.00 | 1025.4 | |
| 20260902091759 | 0 | 166 | 2.0 | 3.0 | 0.00 | 0.00 | 0.00 | 1025.3 | |
| 20260902091255 | 0 | 169 | 2.0 | 3.0 | 0.00 | 0.00 | 0.00 | 1025.5 | |
| 20260902090751 | 0 | 170 | 2.0 | 3.0 | 0.00 | 0.00 | 0.00 | 1025.5 | |
| 20260902090251 | 0 | 169 | 2.0 | 3.0 | 0.00 | 0.00 | 0.00 | 1025.5 | |
| 20260902085750 | 0 | 167 | 1.0 | 2.0 | 0.00 | 0.00 | 0.00 | 1025.5 | |
| 20260902085245 | 0 | 167 | 2.0 | 2.0 | 0.00 | 0.00 | 0.00 | 1025.4 | |
| 20260902084741 | 0 | 166 | 2.0 | 2.0 | 0.00 | 0.00 | 0.00 | 1025.1 | |
| 20260902084237 | 0 | 166 | 2.0 | 2.0 | 0.00 | 0.00 | 0.00 | 1025.4 | |
| 20260902083732 | 0 | 166 | 2.0 | 2.0 | 0.00 | 0.00 | 0.00 | 1025.6 | |
| 20260902083227 | 0 | 166 | 2.0 | 2.0 | 0.00 | 0.00 | 0.00 | 1025.5 | |
| 20260902082722 | 0 | 166 | 0.0 | 1.0 | 0.00 | 0.00 | 0.00 | 1025.5 | |
| 20260902082219 | 0 | 166 | 0.0 | 1.0 | 0.00 | 0.00 | 0.00 | 1025.4 | |
| 20260902081714 | 0 | 166 | 1.0 | 2.0 | 0.00 | 0.00 | 0.00 | 1025.5 | |
| 20260902081215 | 0 | 166 | 2.0 | 2.0 | 0.00 | 0.00 | 0.00 | 1025.4 | |
| 20260902080710 | 70 | 157 | 1.0 | 2.0 | 0.00 | 0.00 | 0.00 | 93 | 1025.5 |
| 20260902080207 | 0 | 154 | 1.0 | 2.0 | 0.00 | 0.00 | 0.00 | 1025.1 | |
| 20260902075706 | 70 | 166 | 0.0 | 0.0 | 0.00 | 0.00 | 0.00 | 94 | 1025.3 |
| 20260902075203 | 70 | 170 | 0.0 | 0.0 | 0.00 | 0.00 | 0.00 | 93 | 1025.3 |
| 20260902074703 | 70 | 172 | 1.0 | 2.0 | 0.00 | 0.00 | 0.00 | 93 | 1025.3 |
| 20260902074158 | 70 | 172 | 2.0 | 2.0 | 0.00 | 0.00 | 0.00 | 93 | 1025.3 |
| 20260902073653 | 70 | 171 | 2.0 | 2.0 | 0.00 | 0.00 | 0.00 | 93 | 1025.4 |
| 20260902073149 | 70 | 174 | 2.0 | 3.0 | 0.00 | 0.00 | 0.00 | 93 | 1025.3 |
| 20260902072645 | 70 | 172 | 0.0 | 0.0 | 0.00 | 0.00 | 0.00 | 93 | 1025.5 |
| 20260902072141 | 70 | 170 | 0.0 | 0.0 | 0.00 | 0.00 | 0.00 | 93 | 1025.0 |
| 20260902071637 | 70 | 171 | 0.0 | 0.0 | 0.00 | 0.00 | 0.00 | 93 | 1025.4 |
| 20260902071132 | 70 | 171 | 0.0 | 0.0 | 0.00 | 0.00 | 0.00 | 94 | 1025.3 |
| 20260902070628 | 71 | 171 | 0.0 | 0.0 | 0.00 | 0.00 | 0.00 | 94 | 1025.1 |
| 20260902070127 | 71 | 172 | 0.0 | 0.0 | 0.00 | 0.00 | 0.00 | 93 | 1025.4 |
| 20260902065626 | 70 | 171 | 0.0 | 0.0 | 0.00 | 0.00 | 0.00 | 94 | 1025.5 |
| 20260902065122 | 70 | 168 | 0.0 | 0.0 | 0.00 | 0.00 | 0.00 | 95 | 1025.1 |
| 20260902064618 | 70 | 166 | 0.0 | 0.0 | 0.00 | 0.00 | 0.00 | 96 | 1025.3 |
| 20260902064113 | 70 | 169 | 0.0 | 0.0 | 0.00 | 0.00 | 0.00 | 96 | 1025.1 |
| 20260902063608 | 70 | 181 | 0.0 | 0.0 | 0.00 | 0.00 | 0.00 | 95 | 1025.4 |
| 20260902063103 | 70 | 185 | 0.0 | 0.0 | 0.00 | 0.00 | 0.00 | 95 | 1025.3 |
| 20260902062602 | 71 | 190 | 0.0 | 0.0 | 0.00 | 0.00 | 0.00 | 94 | 1025.4 |
| 20260902062057 | 71 | 195 | 0.0 | 0.0 | 0.00 | 0.00 | 0.00 | 93 | 1025.3 |
| 20260902061556 | 71 | 206 | 0.0 | 0.0 | 0.00 | 0.00 | 0.00 | 93 | 1025.3 |
| 20260902061053 | 72 | 220 | 0.0 | 0.0 | 0.00 | 0.00 | 0.00 | 92 | 1025.4 |
| 20260902060549 | 71 | 221 | 0.0 | 0.0 | 0.00 | 0.00 | 0.00 | 93 | 1025.1 |
| 20260902060045 | 71 | 227 | 0.0 | 0.0 | 0.00 | 0.00 | 0.00 | 93 | 1025.3 |
| 20260902055541 | 71 | 228 | 0.0 | 0.0 | 0.00 | 0.00 | 0.00 | 93 | 1024.9 |
| 20260902055036 | 71 | 226 | 0.0 | 0.0 | 0.00 | 0.00 | 0.00 | 93 | 1024.9 |
| 20260902054531 | 71 | 227 | 0.0 | 0.0 | 0.00 | 0.00 | 0.00 | 93 | 1024.9 |
| 20260902054027 | 72 | 234 | 0.0 | 0.0 | 0.00 | 0.00 | 0.00 | 92 | 1024.9 |
| 20260902053522 | 72 | 224 | 2.0 | 3.0 | 0.00 | 0.00 | 0.00 | 92 | 1024.8 |
| 20260902053021 | 72 | 240 | 0.0 | 0.0 | 0.00 | 0.00 | 0.00 | 92 | 1024.8 |
| 20260902052516 | 72 | 240 | 0.0 | 0.0 | 0.00 | 0.00 | 0.00 | 92 | 1024.7 |
| 20260902052012 | 72 | 237 | 0.0 | 0.0 | 0.00 | 0.00 | 0.00 | 92 | 1024.9 |
| 20260902051511 | 72 | 239 | 0.0 | 0.0 | 0.00 | 0.00 | 0.00 | 91 | 1024.8 |
| 20260902051010 | 72 | 246 | 0.0 | 0.0 | 0.00 | 0.00 | 0.00 | 91 | 1024.8 |
| 20260902050505 | 73 | 246 | 1.0 | 2.0 | 0.00 | 0.00 | 0.00 | 91 | 1024.9 |
| 20260902050000 | 73 | 246 | 1.0 | 3.0 | 0.00 | 0.00 | 0.00 | 91 | 1024.7 |
| 20260902045455 | 73 | 242 | 0.0 | 0.0 | 0.00 | 0.00 | 0.00 | 91 | 1024.8 |
| 20260902044952 | 73 | 241 | 2.0 | 3.0 | 0.00 | 0.00 | 0.00 | 90 | 1024.9 |
| 20260902044451 | 73 | 225 | 1.0 | 2.0 | 0.00 | 0.00 | 0.00 | 91 | 1024.7 |
| 20260902043947 | 73 | 227 | 1.0 | 2.0 | 0.00 | 0.00 | 0.00 | 91 | 1024.5 |
| 20260902043442 | 72 | 237 | 1.0 | 2.0 | 0.00 | 0.00 | 0.00 | 92 | 1024.7 |
| 20260902042937 | 72 | 238 | 1.0 | 2.0 | 0.00 | 0.00 | 0.00 | 91 | 1024.9 |
| 20260902042437 | 72 | 227 | 2.0 | 3.0 | 0.00 | 0.00 | 0.00 | 91 | 1024.7 |
| 20260902041932 | 72 | 243 | 2.0 | 3.0 | 0.00 | 0.00 | 0.00 | 92 | 1024.7 |
| 20260902041426 | 72 | 230 | 2.0 | 3.0 | 0.00 | 0.00 | 0.00 | 91 | 1024.3 |
| 20260902040926 | 72 | 237 | 2.0 | 3.0 | 0.00 | 0.00 | 0.00 | 91 | 1024.5 |
| 20260902040420 | 72 | 223 | 3.0 | 4.0 | 0.00 | 0.00 | 0.00 | 91 | 1024.5 |
| 20260902035920 | 72 | 227 | 2.0 | 3.0 | 0.00 | 0.00 | 0.00 | 92 | 1024.5 |
| 20260902035415 | 71 | 229 | 2.0 | 3.0 | 0.00 | 0.00 | 0.00 | 92 | 1024.4 |
| 20260902034914 | 72 | 215 | 0.0 | 3.0 | 0.00 | 0.00 | 0.00 | 91 | 1024.3 |
| 20260902034410 | 71 | 266 | 2.0 | 2.0 | 0.00 | 0.00 | 0.00 | 92 | 1024.4 |
| 20260902033908 | 71 | 239 | 2.0 | 3.0 | 0.00 | 0.00 | 0.00 | 92 | 1024.3 |
| 20260902033402 | 71 | 226 | 2.0 | 3.0 | 0.00 | 0.00 | 0.00 | 91 | 1024.4 |
| 20260902032901 | 71 | 220 | 2.0 | 3.0 | 0.00 | 0.00 | 0.00 | 91 | 1024.4 |
| 20260902032357 | 71 | 216 | 3.0 | 3.0 | 0.00 | 0.00 | 0.00 | 91 | 1024.4 |
| 20260902031857 | 71 | 217 | 2.0 | 2.0 | 0.00 | 0.00 | 0.00 | 91 | 1024.3 |
| 20260902031347 | 71 | 214 | 2.0 | 3.0 | 0.00 | 0.00 | 0.00 | 91 | 1024.3 |
| 20260902030842 | 71 | 210 | 0.0 | 0.0 | 0.00 | 0.00 | 0.00 | 92 | 1024.2 |
| 20260902030336 | 71 | 212 | 2.0 | 4.0 | 0.00 | 0.00 | 0.00 | 91 | 1024.4 |
| 20260902025835 | 71 | 218 | 2.0 | 3.0 | 0.00 | 0.00 | 0.00 | 92 | 1024.4 |
| 20260902025327 | 71 | 210 | 2.0 | 3.0 | 0.00 | 0.00 | 0.00 | 92 | 1024.3 |
| 20260902024826 | 71 | 210 | 3.0 | 3.0 | 0.00 | 0.00 | 0.00 | 92 | 1024.3 |
| 20260902024322 | 71 | 221 | 3.0 | 3.0 | 0.00 | 0.00 | 0.00 | 92 | 1024.5 |
| 20260902023817 | 71 | 227 | 1.0 | 2.0 | 0.00 | 0.00 | 0.00 | 92 | 1024.7 |
| 20260902023312 | 71 | 229 | 0.0 | 0.0 | 0.00 | 0.00 | 0.00 | 92 | 1024.6 |
| 20260902022811 | 71 | 231 | 0.0 | 2.0 | 0.00 | 0.00 | 0.00 | 91 | 1024.5 |
| 20260902022307 | 71 | 229 | 3.0 | 3.0 | 0.00 | 0.00 | 0.00 | 92 | 1024.5 |
| 20260902021803 | 72 | 219 | 3.0 | 4.0 | 0.00 | 0.00 | 0.00 | 92 | 1024.7 |
| 20260902021303 | 72 | 233 | 2.0 | 3.0 | 0.00 | 0.00 | 0.00 | 92 | 1024.4 |
| 20260902020759 | 72 | 229 | 2.0 | 4.0 | 0.00 | 0.00 | 0.00 | 91 | 1024.4 |
| 20260902020255 | 72 | 241 | 4.0 | 6.0 | 0.00 | 0.00 | 0.00 | 91 | 1024.4 |
| 20260902015750 | 72 | 227 | 3.0 | 4.0 | 0.00 | 0.00 | 0.00 | 91 | 1024.3 |
| 20260902015246 | 72 | 256 | 3.0 | 4.0 | 0.00 | 0.00 | 0.00 | 91 | 1024.4 |
| 20260902014741 | 72 | 219 | 3.0 | 4.0 | 0.00 | 0.00 | 0.00 | 90 | 1024.5 |
| 20260902014238 | 72 | 227 | 2.0 | 4.0 | 0.00 | 0.00 | 0.00 | 91 | 1024.4 |
| 20260902013736 | 72 | 305 | 2.0 | 4.0 | 0.00 | 0.00 | 0.00 | 91 | 1024.4 |
| 20260902013232 | 72 | 240 | 2.0 | 3.0 | 0.00 | 0.00 | 0.00 | 91 | 1024.2 |
| 20260902012727 | 72 | 229 | 2.0 | 4.0 | 0.00 | 0.00 | 0.00 | 92 | 1024.2 |
| 20260902012223 | 72 | 308 | 3.0 | 3.0 | 0.00 | 0.00 | 0.00 | 93 | 1024.3 |
| 20260902011718 | 72 | 240 | 0.0 | 4.0 | 0.00 | 0.00 | 0.00 | 93 | 1024.1 |
| 20260902011217 | 72 | 233 | 3.0 | 3.0 | 0.00 | 0.00 | 0.00 | 92 | 1024.2 |
| 20260902010712 | 72 | 227 | 1.0 | 6.0 | 0.00 | 0.00 | 0.00 | 91 | 1024.1 |
| 20260902010208 | 72 | 256 | 3.0 | 3.0 | 0.00 | 0.00 | 0.00 | 92 | 1024.4 |
| 20260902005706 | 73 | 231 | 2.0 | 3.0 | 0.00 | 0.00 | 0.00 | 92 | 1024.2 |
| 20260902005201 | 72 | 1 | 3.0 | 4.0 | 0.00 | 0.00 | 0.00 | 93 | 1024.2 |
| 20260902004656 | 72 | 279 | 1.0 | 3.0 | 0.00 | 0.00 | 0.00 | 93 | 1024.2 |
| 20260902004150 | 72 | 237 | 3.0 | 4.0 | 0.00 | 0.00 | 0.00 | 93 | 1024.2 |
| 20260902003646 | 72 | 220 | 3.0 | 4.0 | 0.00 | 0.00 | 0.00 | 93 | 1024.2 |
| 20260902003142 | 73 | 246 | 2.0 | 2.0 | 0.00 | 0.00 | 0.00 | 92 | 1024.2 |
| 20260902002636 | 73 | 284 | 1.0 | 4.0 | 0.00 | 0.00 | 0.00 | 92 | 1023.9 |
| 20260902002131 | 73 | 236 | 0.0 | 2.0 | 0.00 | 0.00 | 0.00 | 92 | 1023.8 |
| 20260902001626 | 73 | 297 | 2.0 | 3.0 | 0.00 | 0.00 | 0.00 | 91 | 1023.9 |
| 20260902001120 | 73 | 263 | 3.0 | 3.0 | 0.00 | 0.00 | 0.00 | 90 | 1023.9 |
| 20260902000616 | 73 | 256 | 2.0 | 3.0 | 0.00 | 0.00 | 0.00 | 90 | 1023.9 |
| 20260902000111 | 73 | 229 | 2.0 | 3.0 | 0.00 | 0.00 | 0.00 | 90 | 1023.8 |
| 20260901235611 | 73 | 233 | 3.0 | 4.0 | 0.00 | 0.00 | 0.00 | 89 | 1023.8 |
| 20260901235107 | 74 | 225 | 2.0 | 3.0 | 0.00 | 0.00 | 0.00 | 89 | 1023.9 |
| 20260901234605 | 74 | 232 | 3.0 | 4.0 | 0.00 | 0.00 | 0.00 | 88 | 1023.7 |
| 20260901234101 | 74 | 226 | 4.0 | 4.0 | 0.00 | 0.00 | 0.00 | 87 | 1023.9 |
| 20260901233600 | 74 | 222 | 3.0 | 3.0 | 0.00 | 0.00 | 0.00 | 88 | 1023.7 |
| 20260901233056 | 74 | 226 | 2.0 | 4.0 | 0.00 | 0.00 | 0.00 | 87 | 1023.9 |
| 20260901232551 | 74 | 230 | 1.0 | 3.0 | 0.00 | 0.00 | 0.00 | 87 | 1023.9 |
| 20260901232046 | 74 | 223 | 1.0 | 3.0 | 0.00 | 0.00 | 0.00 | 86 | 1023.8 |
| 20260901231543 | 75 | 209 | 3.0 | 6.0 | 0.00 | 0.00 | 0.00 | 85 | 1023.9 |
| 20260901231039 | 75 | 210 | 2.0 | 4.0 | 0.00 | 0.00 | 0.00 | 84 | 1023.8 |
| 20260901230539 | 75 | 215 | 3.0 | 6.0 | 0.00 | 0.00 | 0.00 | 83 | 1023.8 |
| 20260901230034 | 75 | 113 | 1.0 | 4.0 | 0.00 | 0.00 | 0.00 | 82 | 1024.1 |
| 20260901225530 | 75 | 200 | 2.0 | 4.0 | 0.00 | 0.00 | 0.00 | 82 | 1024.1 |
| 20260901225030 | 76 | 115 | 2.0 | 3.0 | 0.00 | 0.00 | 0.00 | 81 | 1024.1 |
| 20260901224526 | 76 | 201 | 4.0 | 6.0 | 0.00 | 0.00 | 0.00 | 80 | 1024.1 |
| 20260901224021 | 76 | 191 | 1.0 | 3.0 | 0.00 | 0.00 | 0.00 | 79 | 1024.3 |
| 20260901223516 | 76 | 199 | 0.0 | 3.0 | 0.00 | 0.00 | 0.00 | 79 | 1024.1 |
| 20260901223011 | 76 | 234 | 3.0 | 4.0 | 0.00 | 0.00 | 0.00 | 78 | 1024.2 |
| 20260901222507 | 77 | 202 | 3.0 | 6.0 | 0.00 | 0.00 | 0.00 | 78 | 1024.1 |
| 20260901222003 | 77 | 190 | 2.0 | 4.0 | 0.00 | 0.00 | 0.00 | 79 | 1024.1 |
| 20260901221459 | 77 | 211 | 3.0 | 6.0 | 0.00 | 0.00 | 0.00 | 79 | 1024.2 |
| 20260901220954 | 77 | 219 | 3.0 | 3.0 | 0.00 | 0.00 | 0.00 | 80 | 1024.1 |
| 20260901220453 | 76 | 232 | 5.0 | 9.0 | 0.00 | 0.00 | 0.00 | 81 | 1024.1 |
| 20260901215952 | 76 | 217 | 3.0 | 4.0 | 0.00 | 0.00 | 0.00 | 83 | 1024.2 |
| 20260901215450 | 76 | 207 | 1.0 | 3.0 | 0.00 | 0.00 | 0.00 | 83 | 1023.9 |
| 20260901214950 | 76 | 219 | 4.0 | 8.0 | 0.00 | 0.00 | 0.00 | 82 | 1023.9 |
| 20260901214448 | 76 | 204 | 2.0 | 3.0 | 0.00 | 0.00 | 0.00 | 83 | 1024.1 |
| 20260901213943 | 76 | 210 | 4.0 | 6.0 | 0.00 | 0.00 | 0.00 | 82 | 1023.9 |
| 20260901213438 | 76 | 204 | 3.0 | 3.0 | 0.00 | 0.00 | 0.00 | 83 | 1023.9 |
| 20260901212937 | 76 | 217 | 3.0 | 4.0 | 0.00 | 0.00 | 0.00 | 82 | 1024.2 |
| 20260901212433 | 77 | 222 | 3.0 | 6.0 | 0.00 | 0.00 | 0.00 | 81 | 1023.9 |
| 20260901211930 | 76 | 227 | 4.0 | 4.0 | 0.00 | 0.00 | 0.00 | 82 | 1023.9 |
| 20260901211425 | 77 | 204 | 2.0 | 3.0 | 0.00 | 0.00 | 0.00 | 81 | 1023.9 |
| 20260901210920 | 77 | 227 | 2.0 | 6.0 | 0.00 | 0.00 | 0.00 | 81 | 1024.2 |
| 20260901210416 | 77 | 183 | 2.0 | 7.0 | 0.00 | 0.00 | 0.00 | 80 | 1024.2 |
| 20260901205913 | 77 | 228 | 5.0 | 7.0 | 0.00 | 0.00 | 0.00 | 80 | 1023.9 |
| 20260901205407 | 77 | 248 | 5.0 | 6.0 | 0.00 | 0.00 | 0.00 | 80 | 1024.1 |
| 20260901204902 | 77 | 229 | 5.0 | 7.0 | 0.00 | 0.00 | 0.00 | 80 | 1024.2 |
| 20260901204358 | 78 | 216 | 3.0 | 7.0 | 0.00 | 0.00 | 0.00 | 79 | 1024.2 |
| 20260901203858 | 78 | 210 | 5.0 | 6.0 | 0.00 | 0.00 | 0.00 | 79 | 1024.3 |
| 20260901203352 | 81 | 209 | 2.0 | 3.0 | 0.00 | 0.00 | 0.00 | 75 | 1024.2 |
| 20260901202847 | 80 | 117 | 2.0 | 4.0 | 0.00 | 0.00 | 0.00 | 75 | 1024.2 |
| 20260901202342 | 80 | 221 | 4.0 | 6.0 | 0.00 | 0.00 | 0.00 | 76 | 1024.3 |
| 20260901201838 | 80 | 227 | 4.0 | 4.0 | 0.00 | 0.00 | 0.00 | 77 | 1024.4 |
| 20260901201338 | 80 | 220 | 4.0 | 4.0 | 0.00 | 0.00 | 0.00 | 77 | 1024.6 |
| 20260901200831 | 80 | 226 | 5.0 | 6.0 | 0.00 | 0.00 | 0.00 | 77 | 1024.7 |
| 20260901200328 | 79 | 228 | 4.0 | 6.0 | 0.00 | 0.00 | 0.00 | 78 | 1024.7 |
| 20260901195826 | 79 | 189 | 3.0 | 8.0 | 0.00 | 0.00 | 0.00 | 77 | 1024.8 |
| 20260901195324 | 79 | 202 | 3.0 | 6.0 | 0.00 | 0.00 | 0.00 | 78 | 1024.7 |
| 20260901194821 | 79 | 212 | 1.0 | 3.0 | 0.00 | 0.00 | 0.00 | 79 | 1024.5 |
| 20260901194314 | 78 | 194 | 0.0 | 4.0 | 0.00 | 0.00 | 0.00 | 77 | 1024.7 |
| 20260901193811 | 78 | 229 | 6.0 | 8.0 | 0.00 | 0.00 | 0.00 | 79 | 1024.5 |
| 20260901193309 | 78 | 132 | 2.0 | 4.0 | 0.00 | 0.00 | 0.00 | 79 | 1024.6 |
| 20260901192804 | 78 | 217 | 3.0 | 6.0 | 0.00 | 0.00 | 0.00 | 79 | 1024.7 |